User: anonymous   Login
Location: Follega
(52.8850°N, 5.7362°E)
Time: 11:17:12
(UTC+00:00)
Language:

Cosmos 1340 Rocket - Orbit

View from above orbital plane
View from above orbital plane
View from above satellite
View from above satellite

Ground track
Ground track

The orbit data is extracted from the following two-line orbital elements,

1 13068U 82013B   21162.84170493  .00000142  00000-0  77092-5 0  9997
2 13068  81.2038 359.7384 0022033 187.4117 172.6785 15.07656366142772
Epoch (UTC): 11 June 2021 20:12:03
Eccentricity: 0.0022033
inclination: 81.2038°
perigee height: 528 km
apogee height: 558 km
right ascension of ascending node: 359.7384°
argument of perigee: 187.4117°
revolutions per day: 15.07656366
mean anomaly at epoch: 172.6785°
orbit number at epoch: 14277

The dashed part of the orbit path shows where the satellite is in the earth's shadow,  

DLR